STARLINK-32337, 61643

Orbit data source: Space-Track

STARLINK-32337, 61643 is a payload satellite owned by SpaceX/Seattle (US) in LEO that was launched on Wed, 23 Oct 2024 UTC via an FALCON 9 launch vehicle from the Air Force Eastern Test Range (AFETR). Payload-class satellites include a variety of spacecraft equipped with specific instruments for various scientific and technological missions. These include communications satellites like Starlink; space stations such as the ISS; scientific satellites like the Hubble; Earth observation satellites from companies like Planet Labs, Umbra, and HawkEye 360; GPS; miniature CubeSats for education and research; and military/defense satellites.

Loading next visibility...
Identifier
61643, 2024-191Y
Orbit
LEO
Country
Flag of USUS
Related business
Manufacturer
SpaceX/Seattle
Mission
Operational Commercial Communications
Bus & Motor
STARLINK V2M, Unknown motor
Mass
730 kg wet, ~700 kg dry
Launch date (UTC)
2024-10-23 (2 years ago)
Launch vehicle
FALCON 9
Launch site
Air Force Eastern Test Range (AFETR)
Object type
Payload
Rocket body
Debris
Shape & HBR
Box + 2 Pan, 17.7 m
Radar Cross Section
33.884 m², Large (>1 m²)

Expand to show TLE details & history
Last TLE update: 14 hours ago

TLE from 14 hours ago
0 STARLINK-32337
1 61643U 24191Y   26207.08911058 -.00000350  00000-0 -31969-5 0  9999
2 61643  43.0025  92.8217 0001294 267.5940  92.4764 15.27572082 99463
Epoch: 2026-07-26T02:08Z
TLE epoch observation values (Epoch: 2026-07-26T02:08:19.154Z)
Latitude
0.00003°
Longitude
116.94988°
Altitude
482.887 km
Speed
7.626 km/s
True Right ascension
06h 11m 17s
True Declination
0° 00' 00"
Sunlit
Object was in daylight at epoch
Visualization orbit readout
Latitude
Unknown
Longitude
Unknown
Altitude
Unknown
Speed
Unknown
Apparent Right ascension
Unknown
Apparent Declination
Unknown
Sunlit
N/A
Visualization observer readout
Local Sidereal Time
05:30:26
Azimuth
Unknown
Elevation
Unknown
Doppler factor
Unknown
Orbital elements
Apogee altitude
485.906 km
Perigee altitude
484.129 km
Semi-major axis
6,863.155 km
Eccentricity
0.00013
Inclination
43.0025°
RAAN
92.8217°
Arg. of periapsis
267.594°
True anomaly
92.49121°
Mean anomaly
92.4764°
Eccentric anomaly
92.48381°
Mean motion
3.81731 °/min
Orbital period
94.31 mins
BSTAR
-0.0000031969
Loading maneuver chart data...
Computing Atmospheric mass density...
Loading historical data...
Loading historical data...
Loading historical data...
Loading historical data...
Loading historical data...
Loading historical data...
Loading historical data...

Documentation

Showing up to 5 results
|